Location: Northcutt
(34.7304°N, 84.4305°W)
Time: 18:20:48
(UTC+00:00)

Transit 2A Rocket - Pass Details

Date: 12 October 2022
Orbit: 589 x 911 km, 66.7° (Epoch: 02 December)

Event Time Altitude Azimuth Distance (km) Brightness Sun altitude
Rises 17:47:13 0° 338° (NNW) 3,079 7.8 47.3°
Reaches altitude 10° 17:49:31 10° 344° (NNW) 2,207 7.1 47.3°
Maximum altitude 17:54:28 54° 61° (ENE) 933 5.8 47.1°
Drops below altitude 10° 17:59:52 10° 138° (SE) 2,409 8.1 46.8°
Sets 18:02:28 0° 143° (SE) 3,386 8.7 46.7°
